EN

Hourly Weather Kyzyltu

Today, 21 October, Wednesday

Time Temperature Precipitation Wind Pressure Humidity
00:00 +16°C° 0 mm 1 mps 732 mmHg 21%
01:00 +15°C° 0 mm 2 mps 732 mmHg 21%
02:00 +15°C° 0 mm 2 mps 732 mmHg 22%
03:00 +14°C° 0 mm 2 mps 732 mmHg 22%
04:00 +14°C° 0 mm 2 mps 732 mmHg 23%
05:00 +13°C° 0 mm 1 mps 733 mmHg 24%
06:00 +14°C° 0 mm 2 mps 733 mmHg 23%
07:00 +15°C° 0 mm 2 mps 733 mmHg 22%
08:00 +16°C° 0 mm 2 mps 733 mmHg 20%
09:00 +19°C° 0 mm 2 mps 734 mmHg 17%
10:00 +21°C° 0 mm 2 mps 734 mmHg 14%
11:00 +25°C° 0 mm 2 mps 734 mmHg 11%
12:00 +26°C° 0 mm 2 mps 734 mmHg 11%
13:00 +27°C° 0 mm 2 mps 734 mmHg 10%
14:00 +28°C° 0 mm 3 mps 734 mmHg 9%
15:00 +26°C° 0 mm 2 mps 733 mmHg 10%
16:00 +25°C° 0 mm 2 mps 733 mmHg 11%
17:00 +24°C° 0 mm 2 mps 733 mmHg 12%
18:00 +21°C° 0 mm 2 mps 733 mmHg 14%
19:00 +20°C° 0 mm 1 mps 734 mmHg 16%
20:00 +19°C° 0 mm 1 mps 734 mmHg 17%
21:00 +18°C° 0 mm 1 mps 733 mmHg 18%
22:00 +18°C° 0 mm 1 mps 733 mmHg 18%
23:00 +16°C° 0 mm 1 mps 733 mmHg 19%

Tomorrow, 22 October, Thursday

Time Temperature Precipitation Wind Pressure Humidity
00:00 +15°C° 0 mm 1 mps 733 mmHg 21%
01:00 +14°C° 0 mm 2 mps 733 mmHg 22%
02:00 +14°C° 0 mm 2 mps 734 mmHg 24%
03:00 +12°C° 0 mm 3 mps 734 mmHg 34%
04:00 +12°C° 0 mm 4 mps 735 mmHg 44%
05:00 +12°C° 0 mm 4 mps 735 mmHg 54%
06:00 +12°C° 0 mm 4 mps 736 mmHg 54%
07:00 +12°C° 0 mm 4 mps 736 mmHg 54%
08:00 +12°C° 0 mm 3 mps 736 mmHg 54%
09:00 +13°C° 0 mm 3 mps 736 mmHg 50%
10:00 +14°C° 0 mm 3 mps 736 mmHg 46%
11:00 +16°C° 0 mm 3 mps 736 mmHg 42%
12:00 +17°C° 0 mm 3 mps 736 mmHg 40%
13:00 +17°C° 0 mm 3 mps 735 mmHg 38%
14:00 +18°C° 0 mm 4 mps 735 mmHg 36%
15:00 +17°C° 0 mm 3 mps 735 mmHg 36%
16:00 +17°C° 0 mm 3 mps 734 mmHg 35%
17:00 +16°C° 0 mm 3 mps 734 mmHg 35%
18:00 +14°C° 0 mm 3 mps 734 mmHg 36%
19:00 +12°C° 0 mm 3 mps 734 mmHg 37%
20:00 +11°C° 0 mm 3 mps 735 mmHg 39%
21:00 +10°C° 0 mm 3 mps 734 mmHg 39%
22:00 +10°C° 0 mm 3 mps 734 mmHg 39%
23:00 +9°C° 0 mm 3 mps 734 mmHg 39%

Day after tomorrow, 23 October, Friday

Time Temperature Precipitation Wind Pressure Humidity
00:00 +9°C° 0 mm 3 mps 734 mmHg 39%
01:00 +9°C° 0 mm 3 mps 734 mmHg 39%
02:00 +9°C° 0 mm 2 mps 734 mmHg 39%
03:00 +9°C° 0 mm 2 mps 734 mmHg 40%
04:00 +10°C° 0 mm 1 mps 734 mmHg 40%
05:00 +10°C° 0 mm 1 mps 734 mmHg 41%
06:00 +10°C° 0 mm 1 mps 735 mmHg 41%
07:00 +9°C° 0 mm 2 mps 735 mmHg 40%
08:00 +10°C° 0 mm 2 mps 736 mmHg 40%
09:00 +12°C° 0 mm 2 mps 736 mmHg 39%
10:00 +12°C° 0 mm 3 mps 736 mmHg 37%
11:00 +13°C° 0 mm 3 mps 737 mmHg 35%
12:00 +14°C° 0 mm 3 mps 737 mmHg 34%
13:00 +16°C° 0 mm 3 mps 737 mmHg 32%
14:00 +16°C° 0 mm 2 mps 736 mmHg 31%
15:00 +16°C° 0 mm 2 mps 737 mmHg 31%
16:00 +15°C° 0 mm 2 mps 737 mmHg 32%
17:00 +15°C° 0 mm 2 mps 737 mmHg 33%
18:00 +13°C° 0 mm 2 mps 737 mmHg 37%
19:00 +11°C° 0 mm 3 mps 738 mmHg 41%
20:00 +9°C° 0 mm 3 mps 738 mmHg 46%
21:00 +9°C° 0 mm 3 mps 738 mmHg 47%
22:00 +9°C° 0 mm 3 mps 738 mmHg 49%
23:00 +8°C° 0 mm 3 mps 738 mmHg 51%

24 October, Saturday

Time Temperature Precipitation Wind Pressure Humidity
00:00 +8°C° 0 mm 2 mps 738 mmHg 51%
01:00 +8°C° 0 mm 2 mps 738 mmHg 51%
02:00 +8°C° 0 mm 2 mps 738 mmHg 51%
03:00 +8°C° 0 mm 2 mps 738 mmHg 51%
04:00 +8°C° 0 mm 2 mps 737 mmHg 50%
05:00 +8°C° 0 mm 2 mps 737 mmHg 50%
06:00 +8°C° 0 mm 2 mps 738 mmHg 48%
07:00 +9°C° 0 mm 2 mps 738 mmHg 46%
08:00 +9°C° 0 mm 2 mps 738 mmHg 45%
09:00 +12°C° 0 mm 2 mps 738 mmHg 40%
10:00 +14°C° 0 mm 2 mps 738 mmHg 36%
11:00 +16°C° 0 mm 2 mps 738 mmHg 32%
12:00 +16°C° 0 mm 2 mps 737 mmHg 30%
13:00 +17°C° 0 mm 2 mps 737 mmHg 29%
14:00 +18°C° 0 mm 2 mps 737 mmHg 27%
15:00 +17°C° 0 mm 2 mps 737 mmHg 28%
16:00 +16°C° 0 mm 3 mps 737 mmHg 30%
17:00 +16°C° 0 mm 3 mps 737 mmHg 31%
18:00 +13°C° 0 mm 3 mps 737 mmHg 35%
19:00 +11°C° 0 mm 3 mps 738 mmHg 38%
20:00 +10°C° 0 mm 4 mps 738 mmHg 42%
21:00 +9°C° 0 mm 3 mps 738 mmHg 43%
22:00 +9°C° 0 mm 3 mps 738 mmHg 45%
23:00 +8°C° 0 mm 3 mps 738 mmHg 46%

25 October, Sunday

Time Temperature Precipitation Wind Pressure Humidity
00:00 +8°C° 0 mm 3 mps 738 mmHg 47%
01:00 +8°C° 0 mm 2 mps 738 mmHg 48%
02:00 +8°C° 0 mm 2 mps 738 mmHg 48%
03:00 +7°C° 0 mm 2 mps 738 mmHg 49%
04:00 +7°C° 0 mm 2 mps 739 mmHg 49%
05:00 +8°C° 0 mm 1 mps 739 mmHg 49%
06:00 +9°C° 0 mm 1 mps 739 mmHg 47%
07:00 +10°C° 0 mm 1 mps 739 mmHg 45%
08:00 +10°C° 0 mm 1 mps 739 mmHg 42%
09:00 +13°C° 0 mm 1 mps 739 mmHg 37%
10:00 +14°C° 0 mm 0 mps 739 mmHg 32%
11:00 +16°C° 0 mm 0 mps 739 mmHg 27%
12:00 +19°C° 0 mm 1 mps 739 mmHg 25%
13:00 +20°C° 0 mm 1 mps 739 mmHg 24%
14:00 +21°C° 0 mm 1 mps 739 mmHg 23%
15:00 +20°C° 0 mm 1 mps 739 mmHg 24%
16:00 +19°C° 0 mm 1 mps 738 mmHg 26%
17:00 +18°C° 0 mm 1 mps 738 mmHg 27%
18:00 +16°C° 0 mm 2 mps 738 mmHg 30%
19:00 +14°C° 0 mm 2 mps 738 mmHg 33%
20:00 +12°C° 0 mm 3 mps 738 mmHg 36%
21:00 +11°C° 0 mm 3 mps 738 mmHg 37%
22:00 +11°C° 0 mm 3 mps 738 mmHg 38%
23:00 +12°C° 0 mm 2 mps 738 mmHg 39%

26 October, Monday

Time Temperature Precipitation Wind Pressure Humidity
00:00 +10°C° 0 mm 2 mps 737 mmHg 39%
01:00 +10°C° 0 mm 2 mps 737 mmHg 39%
02:00 +10°C° 0 mm 2 mps 737 mmHg 39%
03:00 +10°C° 0 mm 2 mps 737 mmHg 39%
04:00 +10°C° 0 mm 2 mps 737 mmHg 39%
05:00 +10°C° 0 mm 2 mps 736 mmHg 39%
06:00 +10°C° 0 mm 2 mps 736 mmHg 36%
07:00 +12°C° 0 mm 2 mps 736 mmHg 34%
08:00 +13°C° 0 mm 1 mps 736 mmHg 31%
09:00 +15°C° 0 mm 1 mps 736 mmHg 26%
10:00 +19°C° 0 mm 1 mps 736 mmHg 22%
11:00 +22°C° 0 mm 1 mps 736 mmHg 17%
12:00 +23°C° 0 mm 2 mps 735 mmHg 16%
13:00 +24°C° 0 mm 2 mps 735 mmHg 14%
14:00 +25°C° 0 mm 2 mps 735 mmHg 13%
15:00 +24°C° 0 mm 3 mps 734 mmHg 14%
16:00 +22°C° 0 mm 3 mps 734 mmHg 15%
17:00 +21°C° 0 mm 3 mps 733 mmHg 16%
18:00 +19°C° 0 mm 3 mps 733 mmHg 19%
19:00 +17°C° 0 mm 3 mps 733 mmHg 22%
20:00 +14°C° 0 mm 3 mps 732 mmHg 26%
21:00 +14°C° 0 mm 2 mps 732 mmHg 26%
22:00 +14°C° 0 mm 2 mps 732 mmHg 26%
23:00 +14°C° 0 mm 2 mps 731 mmHg 26%

27 October, Tuesday

Time Temperature Precipitation Wind Pressure Humidity
00:00 +13°C° 0 mm 2 mps 731 mmHg 25%
01:00 +13°C° 0 mm 1 mps 731 mmHg 25%
02:00 +13°C° 0 mm 1 mps 731 mmHg 24%
03:00 +13°C° 0 mm 1 mps 730 mmHg 24%
04:00 +13°C° 0 mm 1 mps 730 mmHg 24%
05:00 +12°C° 0 mm 1 mps 730 mmHg 24%
06:00 +13°C° 0 mm 1 mps 730 mmHg 23%
07:00 +14°C° 0 mm 1 mps 730 mmHg 23%
08:00 +14°C° 0 mm 1 mps 730 mmHg 22%
09:00 +18°C° 0 mm 1 mps 730 mmHg 19%
10:00 +18°C° 0 mm 0 mps 730 mmHg 16%
11:00 +21°C° 0 mm 0 mps 730 mmHg 12%
12:00 +22°C° 0 mm 0 mps 730 mmHg 12%
13:00 +25°C° 0 mm 1 mps 730 mmHg 11%
14:00 +26°C° 0 mm 1 mps 730 mmHg 10%
15:00 +25°C° 0 mm 1 mps 730 mmHg 11%
16:00 +23°C° 0 mm 1 mps 730 mmHg 12%
17:00 +22°C° 0 mm 1 mps 730 mmHg 14%
18:00 +20°C° 0 mm 1 mps 730 mmHg 16%
19:00 +19°C° 0 mm 1 mps 730 mmHg 18%
20:00 +16°C° 0 mm 1 mps 730 mmHg 21%
21:00 +16°C° 0 mm 1 mps 730 mmHg 20%
22:00 +16°C° 0 mm 1 mps 730 mmHg 19%
23:00 +15°C° 0 mm 2 mps 730 mmHg 18%
Show more

We Need Your Consent

Meteoprog and our Service Providers may store and access personal data such as cookies, device identifiers or other similar technologies on your device and process such data to personalise content and ads, as well as provide social media features and to analyse the traffic.

  • Store and/or access information on your device

    Cookies, device identifiers or other information can be stored or accessed on your device for the purposes indicated above.

  • Personalised ads and content, ad and content measurement, audience insights, and products development

    Ads and content can be personalised based on a profile. More data can be added to better personalise ads and content. Ad and content performance can be measured. Insights about the audience who saw the ads and content can be derived. Such data can be used to develop or improve user’s experience, systems and software.

By clicking ‘I Agree’ you will allow the use of indicated cookies, device identifiers, web beacons or other similar technologies. Your settings can be changed in the browser on your device.

For certain purposes, legitimate interests may be relied on, rather than consent. You can read more about this in our Privacy and Cookie Policy.